Flag for Germany Weather past 2 weeks in Halle, Saxony-Anhalt, Germany

Now
50 °F

Clear.


Feels Like: 47 °F
Forecast: 55 / 80 °F
Wind: 8 mph from Northeast

Location: Leipzig-Schkeuditz

Current Time: Aug 1, 2015 at 6:08:38 AM

Latest Report: Aug 1, 2015 at 5:20 AM


Visibility: 10 mi

Pressure: 30.04 "Hg

Humidity: 76%

Dew point: 43 °F

Location of HalleLocation

Historic Weather in Halle — Graph

°F

Halle temperature yesterday

Maximum temperature yesterday: 68 °F (at 3:20 PM)
Minimum temperature yesterday: 48 °F (at 3:50 AM)
Average temperature yesterday: 58 °F

Past Weeks' High & Low Weather Summary

 TemperatureHumidityPressure
High93 °F (Jul 17, 5:20 PM)100% (Jul 23, 1:50 AM)30.12 "Hg (Jul 23, 1:50 AM)
Low48 °F (Jul 31, 3:50 AM)24% (Jul 17, 5:50 PM)29.59 "Hg (Jul 25, 3:50 AM)
Average68 °F66%29.87 "Hg
* Reported Jul 17 4:20 AM — Aug 1 4:50 AM, Halle, Weather by CustomWeather, © 2015

Note: Actual official high and low records may vary slightly from our data, if they occured in-between our weather recording intervals... More about our weather records

Advertising

Halle weather history for previous 24 hours

 ConditionsComfort  
Time TempWeatherWind HumidityBarometerVisibility
4:50 AM
Sat, Aug 1
50 °FClear.8 mph82%30.07 "Hg10 mi
4:20 AM52 °FClear.9 mph77%30.07 "Hg10 mi
3:50 AM52 °FClear.8 mph77%30.07 "Hg10 mi
3:20 AM52 °FClear.8 mph77%30.07 "Hg10 mi
2:50 AM52 °FClear.8 mph77%30.07 "Hg10 mi
2:20 AM52 °FClear.8 mph77%30.07 "Hg10 mi
1:50 AM52 °FClear.8 mph72%30.07 "Hg10 mi
1:20 AM52 °FClear.8 mph72%30.07 "Hg10 mi
12:50 AM54 °FClear.8 mph67%30.07 "Hg10 mi
12:20 AM55 °FClear.8 mph63%30.07 "Hg10 mi
11:50 PM
Fri, Jul 31
55 °FClear.7 mph63%30.07 "Hg10 mi
11:20 PM54 °FClear.8 mph72%30.07 "Hg10 mi
10:50 PM55 °FClear.7 mph67%30.07 "Hg10 mi
10:20 PM55 °FClear.8 mph63%30.07 "Hg10 mi
9:50 PM57 °FSunny.7 mph59%30.07 "Hg10 mi
9:20 PM57 °FSunny.8 mph59%30.07 "Hg10 mi
8:50 PM61 °FSunny.8 mph52%30.07 "Hg10 mi
8:20 PM63 °FSunny.9 mph49%30.07 "Hg10 mi
7:50 PM64 °FSunny.7 mph43%30.07 "Hg10 mi
7:20 PM66 °FSunny.7 mph40%30.07 "Hg10 mi
6:50 PM66 °FSunny.8 mph40%30.07 "Hg10 mi
6:20 PM68 °FSunny.5 mph38%30.07 "Hg10 mi
5:50 PM66 °FSunny.7 mph40%30.07 "Hg10 mi
5:20 PM68 °FSunny.5 mph38%30.07 "Hg10 mi
4:50 PM68 °FPassing clouds.5 mph38%30.07 "HgN/A
4:20 PM68 °FScattered clouds.7 mph38%30.07 "HgN/A
3:50 PM68 °FScattered clouds.6 mph40%30.07 "HgN/A
3:20 PM68 °FScattered clouds.7 mph38%30.09 "HgN/A
2:50 PM66 °FBroken clouds.8 mph40%30.09 "HgN/A
2:20 PM66 °FPartly sunny.2 mph43%30.09 "HgN/A
1:50 PM66 °FScattered clouds.7 mph43%30.09 "HgN/A
1:20 PM64 °FBroken clouds.3 mph46%30.09 "HgN/A
12:50 PM66 °FPartly sunny.8 mph46%30.09 "HgN/A
12:20 PM64 °FPartly sunny.9 mph49%30.09 "HgN/A
11:50 AM63 °FPartly sunny.5 mph52%30.12 "HgN/A
11:20 AM61 °FPartly sunny.6 mph55%30.12 "HgN/A
10:50 AM61 °FPartly sunny.7 mph55%30.09 "HgN/A
10:20 AM61 °FPartly sunny.7 mph55%30.09 "HgN/A
9:50 AM59 °FPartly sunny.6 mph63%30.12 "HgN/A
9:20 AM57 °FPartly sunny.6 mph67%30.12 "HgN/A
8:50 AM57 °FScattered clouds.6 mph72%30.09 "HgN/A
8:20 AM55 °FScattered clouds.6 mph77%30.09 "HgN/A
7:50 AM54 °FScattered clouds.7 mph82%30.09 "HgN/A
7:20 AM52 °FSunny.7 mph88%30.09 "Hg10 mi
6:50 AM50 °FSunny.6 mph94%30.09 "Hg10 mi
6:20 AM48 °FClear.6 mph87%30.07 "Hg10 mi
Weather by CustomWeather, © 2015

See weather overviewHow to use our weather pages